Simultaneous Nadir Overpasses (SNOs) Predictions

Prediction of SNOs between GOES-16 and METOP-A Satellite Orbit:

Table of predicted SNOs for the next 14.0 days since TLE Epoch: 3/27/2021
Index Date Time (GOES-16) GOES-16 Lat,Lon METOP-A Lat,Lon Distance(km) Time Diff (sec)
1 03/27/2021 13:29:38 0.03, -75.24 0.69, -78.12 328.32 80
2 03/28/2021 13:06:19 0.03, -75.25 -0.43, -73.15 239.60 80
3 03/30/2021 01:27:59 -0.04, -75.23 -0.57, -77.78 290.73 80
4 03/31/2021 01:04:38 -0.03, -75.24 0.49, -72.80 277.25 80
5 04/01/2021 13:26:10 0.03, -75.29 0.51, -77.40 241.23 80
6 04/02/2021 13:02:50 0.03, -75.30 -0.62, -72.43 326.96 80
7 04/04/2021 01:24:31 -0.03, -75.28 -0.39, -77.07 202.89 80
8 04/05/2021 01:01:10 -0.03, -75.29 0.68, -72.08 365.52 80
9 04/06/2021 13:20:01 0.03, -75.35 0.32, -76.68 152.07 80
10 04/07/2021 13:02:01 0.03, -75.37 -0.75, -71.70 417.06 80
11 04/09/2021 01:21:01 -0.03, -75.37 -0.25, -76.34 111.06 80
12 04/10/2021 00:57:42 -0.02, -75.39 0.88, -71.37 458.51 80
